Flag Weather past 2 weeks in Buffalo, New York, U.S.A.

Now
43 °F

Light rain. Mostly cloudy.


Feels Like: 39 °F
Forecast: 36 / 43 °F
Wind: 6 mph from Southeast

Location: Greater Buffalo International Airport

Current Time: Oct 31, 2014 at 9:23:00 PM

Latest Report: Oct 31, 2014 at 8:54 PM


Visibility: 7 mi

Pressure: 29.96 "Hg

Humidity: 89%

Dew point: 40 °F

Location of BuffaloLocation

Historic Weather in Buffalo — Graph

°F

Buffalo temperature yesterday

Maximum temperature yesterday: 48 °F (at 1:54 PM)
Minimum temperature yesterday: 38 °F (at 7:54 AM)
Average temperature yesterday: 44 °F

Past Weeks' High & Low Weather Summary

 TemperatureHumidityPressure
High73 °F (Oct 28, 11:54 AM)93% (Oct 17, 8:54 AM)30.24 "Hg (Oct 17, 8:54 AM)
Low34 °F (Oct 27, 7:54 AM)43% (Oct 27, 2:54 PM)29.52 "Hg (Oct 18, 3:54 AM)
Average50 °F73%29.90 "Hg
* Reported Oct 16 7:54 PM — Oct 31 7:54 PM, Buffalo, Weather by CustomWeather, © 2014

Note: Actual official high and low records may vary slightly from our data, if they occured in-between our weather recording intervals... More about our weather records

Advertising

Buffalo weather history for previous 24 hours

 ConditionsComfort  
Time TempWeatherWind HumidityBarometerVisibility
7:54 PM
Oct 31
44 °FLight rain. Fog.8 mph89%29.96 "Hg6 mi
6:54 PM45 °FLight rain. Mostly cloudy.6 mph86%29.94 "Hg8 mi
5:54 PM46 °FLight rain. Mostly cloudy.5 mph79%29.92 "Hg8 mi
4:54 PM47 °FLight rain. Mostly cloudy.6 mph74%29.91 "Hg10 mi
3:54 PM48 °FLight rain. Mostly cloudy.6 mph68%29.90 "Hg10 mi
2:54 PM48 °FMostly cloudy.8 mph63%29.90 "Hg10 mi
1:54 PM48 °FLight rain. Mostly cloudy.8 mph66%29.91 "Hg10 mi
12:54 PM47 °FLight rain. Mostly cloudy.7 mph71%29.93 "Hg10 mi
11:54 AM47 °FLight rain. Mostly cloudy.No wind71%29.94 "Hg10 mi
10:54 AM46 °FMostly cloudy.5 mph77%29.95 "Hg10 mi
9:54 AM45 °FMostly cloudy.6 mph76%29.96 "Hg10 mi
8:54 AM43 °FOvercast.7 mph86%29.97 "Hg10 mi
7:54 AM42 °FMostly cloudy.7 mph89%29.96 "Hg10 mi
6:54 AM42 °FLight rain. Mostly cloudy.7 mph89%29.97 "Hg10 mi
5:54 AM42 °FLight rain. Mostly cloudy.7 mph85%29.97 "Hg9 mi
5:01 AM42 °FLight rain. Mostly cloudy.7 mph85%29.97 "Hg10 mi
3:54 AM43 °FOvercast.3 mph79%29.99 "Hg10 mi
2:54 AM43 °FMostly cloudy.5 mph76%30.00 "Hg10 mi
1:54 AM43 °FMostly cloudy.6 mph76%30.01 "Hg10 mi
12:54 AM43 °FMostly cloudy.3 mph74%30.02 "Hg10 mi
11:54 PM
Oct 30
44 °FMostly cloudy.No wind68%30.03 "Hg10 mi
10:54 PM44 °FMostly cloudy.No wind68%30.04 "Hg10 mi
9:54 PM45 °FMostly cloudy.No wind65%30.04 "Hg10 mi
Weather by CustomWeather, © 2014

See weather overviewHow to use our weather pages